Danbury, CT

4:27 AM EST on January 22, 2017 (GMT -0500)
Danbury Municipal

Weather History for KDXR - August, 2013

Change the Weather History Date:

Monday, August 5, 2013

  Actual Average Record
Temperature  
Mean Temperature 64 °F -  
Max Temperature 75 °F 82 °F 98 °F (1955)
Min Temperature 52 °F 61 °F 47 °F (1972)
Degree Days  
Heating Degree Days 2    
Growing Degree Days 14 (Base 50)    
Moisture  
Dew Point 49 °F    
Average Humidity 63    
Maximum Humidity 89    
Minimum Humidity 35    
Precipitation  
Precipitation 0.00 in - - ()
Sea Level Pressure  
Sea Level Pressure 30.03 in    
Wind  
Wind Speed 5 mph (WNW)    
Max Wind Speed 14 mph    
Max Gust Speed 25 mph    
Visibility 10 miles    
Events      
Averages and records for this station are not official NWS values.
T = Trace of Precipitation, MM = Missing Value Source: NWS Daily Summary

Daily Weather History Graph

Daily Weather History Graph

Search for Another Location

Airport or City:

Trip Planner

Search our weather history database for the weather conditions in past years. The results will help you decide how hot, cold, wet, or windy it might be!

Date:

Astronomy

Aug. 05, 2013 Rise Set
Actual Time 5:53 AM EDT 8:05 PM EDT
Civil Twilight 5:22 AM EDT 8:36 PM EDT
Nautical Twilight 4:44 AM EDT 9:14 PM EDT
Astronomical Twilight 4:02 AM EDT 9:55 PM EDT
Moon 4:45 AM EDT (8/5) 7:04 PM EDT (8/5)
Length of Visible Light 15h 14m
Length of Day
14h 12m
Waning Crescent, 1% of the Moon is Illuminated
Aug 5
Waning Crescent
Aug 6
New
Aug 14
First Quarter
Aug 20
Full
Aug 28
Last Quarter

Hourly Weather History & Observations

Time (EDT) Temp. Dew Point Humidity Pressure Visibility Wind Dir Wind Speed Gust Speed Precip Events Conditions
12:53 AM 55.9 °F 52.0 °F 87% 29.97 in 10.0 mi SSW 3.5 mph - N/A   Clear
1:53 AM 57.0 °F 52.0 °F 83% 29.97 in 10.0 mi West 3.5 mph - N/A   Clear
2:53 AM 55.0 °F 51.1 °F 86% 29.98 in 10.0 mi Calm Calm - N/A   Clear
3:53 AM 54.0 °F 50.0 °F 86% 29.99 in 10.0 mi Calm Calm - N/A   Clear
4:53 AM 52.0 °F 48.9 °F 89% 30.01 in 10.0 mi SW 3.5 mph - N/A   Clear
5:53 AM 53.1 °F 48.9 °F 86% 30.02 in 10.0 mi Calm Calm - N/A   Clear
6:53 AM 55.9 °F 51.1 °F 84% 30.04 in 10.0 mi West 3.5 mph - N/A   Clear
7:53 AM 61.0 °F 51.1 °F 70% 30.05 in 10.0 mi NW 5.8 mph - N/A   Clear
8:53 AM 63.0 °F 48.0 °F 58% 30.06 in 10.0 mi NNW 6.9 mph - N/A   Clear
9:53 AM 66.0 °F 45.0 °F 47% 30.06 in 10.0 mi North 12.7 mph 24.2 mph N/A   Clear
10:53 AM 66.9 °F 42.1 °F 40% 30.06 in 10.0 mi NNW 13.8 mph 25.3 mph N/A   Clear
11:53 AM 69.1 °F 44.1 °F 40% 30.06 in 10.0 mi North 9.2 mph 18.4 mph N/A   Clear
12:53 PM 70.0 °F 44.1 °F 39% 30.04 in 10.0 mi Variable 6.9 mph 20.7 mph N/A   Clear
1:53 PM 72.0 °F 44.1 °F 37% 30.03 in 10.0 mi North 11.5 mph - N/A   Clear
2:53 PM 73.9 °F 46.0 °F 37% 30.02 in 10.0 mi NNW 9.2 mph - N/A   Clear
3:53 PM 73.9 °F 45.0 °F 35% 30.01 in 10.0 mi Variable 4.6 mph - N/A   Clear
4:53 PM 75.0 °F 46.0 °F 36% 30.01 in 10.0 mi North 8.1 mph - N/A   Clear
5:53 PM 75.0 °F 46.0 °F 36% 30.01 in 10.0 mi NNW 6.9 mph - N/A   Clear
6:53 PM 72.0 °F 46.0 °F 40% 30.02 in 10.0 mi Calm Calm - N/A   Clear
7:53 PM 64.0 °F 54.0 °F 70% 30.04 in 10.0 mi SW 4.6 mph - N/A   Clear
8:53 PM 60.1 °F 53.1 °F 78% 30.06 in 10.0 mi SW 3.5 mph - N/A   Clear
9:53 PM 57.9 °F 52.0 °F 81% 30.06 in 10.0 mi SW 3.5 mph - N/A   Clear
10:53 PM 57.0 °F 52.0 °F 83% 30.06 in 10.0 mi SW 3.5 mph - N/A   Clear
11:53 PM 55.9 °F 52.0 °F 87% 30.06 in 10.0 mi SW 3.5 mph - N/A   Clear